Location: Simi Valley
(34.2690°N, 118.7810°W)
Time: 01:58:22
(UTC-07:00)

SAR-Lupe-1 - Visible Passes

Search period start: 29 August 2016 00:00
Search period end: 08 September 2016 00:00
Orbit: 481 x 485 km, 98.2° (Epoch: 28 January)

Date Brightness Start Highest point End Pass type
(mag) Time Alt. Az. Time Alt. Az. Time Alt. Az.
29 Aug 7.0 20:06:50 10° SW 20:09:25 19° W 20:12:01 10° NW visible
01 Sep 7.4 20:24:12 10° WSW 20:25:37 12° W 20:27:04 10° WNW visible
02 Sep 6.4 19:56:44 10° SSW 19:59:47 27° W 20:02:51 10° NW visible
05 Sep 7.1 20:13:32 10° SW 20:15:56 17° W 20:18:20 10° NW visible
06 Sep 5.7 19:46:46 10° S 19:50:06 38° W 19:53:28 10° NNW visible
